Вернуться в каталог

USA 40 R/B DEB

LostHEO
NORAD 23365·DEBRIS·🇺🇸 United States

Запущен Aug 8, 1989 с Cape Canaveral Space Force Station

Loading…

Ближайшие Пролёты (ближайшие 24 часа)

TLE

УстаревшееSource: Space-Track

Эпоха: Feb 13, 2023, 10:25 UTC

1 23365U 89061AM  23044.43410409  .00010013  00000-0  66137-2 0  9991
2 23365  57.0669 325.3567 2830482 211.1854 128.5450  9.22543584114524

Отслеживайте USA 40 R/B DEB в реальном времени с AllMySat

Download on the App Store